[[{"header":{"parameterUnit":"m.s-1","parameterCategory":1,"la1":30.2991,"la2":30.254,"lo1":-89.0895,"lo2":-89.0444,"dy":0.0017,"dx":0.0017,"nx":28,"ny":28,"refTime":"2025-05-20T21:00:00:Z","depth":0,"parameterNumber":2,"parameterNumberName":"U-component_of_WINDS"},"data":[0,0,0,0,0,0,0,0,0,0,0,0,0,0,0,0,0,0,0,0,0,0,0,0,0,0,0,0,0,0,0,0,0,0,0,0,0,0,0,0,0,0,0,0,0,0,0,0,0,0,0,0,0,0,0,0,0,0,0.9482,0.9483,0,0.9586,0.9587,0.9588,0.9573,0.9571,0.9569,0.9567,0.9676,0.9681,0.9685,0,0,0,0,0,0,0,0,0,0,0,0,0,0.9273,0.9277,0.9482,0.9483,0.9484,0.9585,0.9587,0.9588,0.9573,0.9571,0.9569,0.9567,0.9675,0.968,0.9686,0,0,0,0,0,0,0,0,0,0,0,0,0,0.9369,0.9278,0.9482,0.9489,0.9491,0.9585,0.9587,0.9589,0.9573,0.9571,0.9568,0.9566,0.9673,0.968,0.9686,0.9781,0,0,0.9707,0.971,0,0,0,0,0,0,0,0,0.9363,0.9376,0.9487,0.9489,0.9491,0.9563,0.9553,0.9653,0.9574,0.9542,0.9567,0.9564,0.9641,0.965,0.9676,0.9786,0.9791,0.9708,0.9712,0.9715,0.9717,0,0,0,0,0,0,0,0.9357,0.9372,0.9523,0.9488,0.9491,0.9488,0.9498,0.9572,0.9605,0.9545,0.9544,0.9556,0.9642,0.9669,0.9678,0.9792,0.9707,0.9713,0.9718,0.972,0.9985,0.9988,0,0,0,0,0,0,0.9348,0.9366,0.952,0.9526,0.9419,0.9494,0.9506,0.9543,0.9604,0.9611,0.9558,0.9555,0.9659,0.967,0.9682,0.9796,0.9715,0.9721,0.9725,0.9982,0.9986,0.9989,0,0,0,0,0,0,0.9343,0.9362,0.9515,0.9446,0.9465,0.95,0.9542,0.9546,0.9573,0.9614,0.9621,0.958,0.9657,0.9672,0.9756,0.9799,0.9724,0.973,0.9979,0.9983,0.9988,1.0025,0,0,0,0,0,0,0.9337,0.936,0.9396,0.9447,0.9469,0.9587,0.9545,0.955,0.9585,0.9582,0.9636,0.9643,0.9656,0.9746,0.9763,0.9807,0.9736,0.9975,0.9981,0.9986,1.002,1.0031,1.0039,0,0,0,0,0,0.933,0.9403,0.9398,0.9416,0.9514,0.959,0.9603,0.9615,0.9589,0.9625,0.9651,0.9641,0.9792,0.9755,0.9774,0.9821,0.9972,0.9979,0.9986,1.0016,1.0029,1.0039,0,0,0,0,0,0,0.9357,0.941,0.9404,0.9496,0.9538,0.9587,0.9633,0.9628,0.968,0.9675,0.969,0.9702,0.9787,0.9813,0.977,0.9916,0.9879,0.9889,0.9895,0.9908,0.9917,0.9908,0.9741,0,0,0,0,0,0.9373,0.9429,0.9473,0.955,0.9571,0.9599,0.9632,0.9638,0.9683,0.9701,0.9734,0.9778,0.9836,0.9873,0.9929,1.0025,1.0036,1.0066,1.0076,1.0083,1.0092,1.0144,1.0158,1.0011,1.0011,1.0011,0,0,0.9408,0.9444,0.9478,0.9556,0.9589,0.9648,0.9614,0.9677,0.9721,0.9711,0.9792,0.9817,0.9868,0.9958,1.0,0.9982,1.0136,1.0092,1.0098,1.0102,1.0153,1.0166,1.0179,1.0016,1.0015,1.0014,0,0,0.9501,0.9534,0.9601,0.9635,0.9686,0.9704,0.972,0.977,0.9786,0.9867,0.9861,0.9914,1.0012,1.0048,1.008,1.0187,1.0179,1.0205,1.0253,1.0304,1.0316,1.0326,1.0363,1.0377,1.0213,1.0214,1.0214,0,0.9537,0.9624,0.9636,0.97,0.9734,0.9727,0.9796,0.9829,0.9896,0.992,0.9899,1.0023,1.0057,1.0155,1.0181,1.0207,1.0226,1.0198,1.0313,1.0323,1.0333,1.0369,1.0383,1.0216,1.0216,1.0216,1.0215,0,0.9666,0.9727,0.9775,0.9838,0.9878,0.9944,0.9966,1.0006,1.0009,1.0029,1.0112,1.0152,1.0215,1.0239,1.0243,1.0338,1.0326,1.0309,1.0272,1.035,1.0383,1.0397,1.022,1.0219,1.0218,1.0218,0,0,0.9778,0.9847,0.9864,0.9893,0.9949,0.9996,1.0062,1.0123,1.0156,1.0202,1.0258,1.0342,1.0326,1.0362,1.037,1.0415,1.0496,1.0393,1.0394,1.041,1.0603,1.0614,1.0629,1.0492,1.0495,1.0497,1.0598,0,0.9875,0.9989,1.0002,1.0105,1.0161,1.0156,1.0213,1.0254,1.0275,1.0326,1.035,1.0409,1.0385,1.0406,1.045,1.0477,1.0535,1.047,1.0544,1.0546,1.053,1.0647,1.0659,1.0752,1.0611,1.0614,1.0615,0,1.0003,1.0052,1.016,1.0208,1.0232,1.0283,1.0339,1.0388,1.0435,1.0447,1.0487,1.0489,1.0558,1.0519,1.0614,1.0569,1.0601,1.0619,1.0623,1.0629,1.0584,1.0656,1.0783,1.0796,1.0636,1.0635,1.0633,0,1.0072,1.0165,1.0241,1.0266,1.0325,1.036,1.0387,1.0431,1.0466,1.0516,1.054,1.0598,1.0629,1.0674,1.0692,1.0663,1.0786,1.0749,1.0798,1.0798,1.0823,1.0821,1.0956,1.0845,1.0845,1.0845,1.0845,0,1.0178,1.0244,1.0273,1.032,1.0394,1.0409,1.0482,1.0507,1.0546,1.0598,1.0598,1.0647,1.0669,1.0722,1.0737,1.0813,1.0828,1.0839,1.0842,1.0839,1.0837,1.0858,1.0852,1.0849,1.0848,1.0847,1.0846,0,1.0266,1.0289,1.0372,1.042,1.0434,1.0486,1.0528,1.0573,1.0594,1.066,1.0676,1.0709,1.0771,1.0794,1.0871,1.0881,1.0968,1.0966,1.0952,1.0952,1.0999,1.0994,1.1152,1.1173,1.105,1.1051,1.1052,0,1.0332,1.0382,1.0436,1.047,1.0497,1.0553,1.0589,1.0606,1.0644,1.0701,1.074,1.0802,1.0852,1.0951,1.0982,1.1041,1.104,1.1091,1.1049,1.1043,1.1039,1.1035,1.104,1.1098,1.11,1.1101,1.1102,0,1.0445,1.0454,1.0505,1.0561,1.0604,1.0649,1.0693,1.0721,1.0745,1.0788,1.0851,1.0889,1.0967,1.1028,1.1088,1.1115,1.1113,1.1115,1.1129,1.1125,1.1114,1.1119,1.0972,1.1111,1.111,1.1109,1.1109,1.1108,1.0523,1.0568,1.0612,1.067,1.0704,1.0745,1.079,1.0816,1.0869,1.0932,1.094,1.1007,1.1053,1.1133,1.1164,1.1217,1.1204,1.1224,1.123,1.1234,1.1237,1.1106,1.1229,1.1228,1.1228,1.1228,1.1228,0,1.0636,1.0664,1.0717,1.0777,1.0823,1.0816,1.0864,1.0903,1.0962,1.1004,1.1054,1.1126,1.1186,1.1221,1.1281,1.1317,1.1318,1.1332,1.1329,1.1336,1.1246,1.1227,1.1331,1.1331,1.1331,1.1331,1.1331,1.1331,1.0699,1.0773,1.0787,1.0879,1.0908,1.0973,1.1001,1.1039,1.1073,1.1153,1.1202,1.1225,1.1266,1.1328,1.1383,1.1392,1.1414,1.1429,1.1437,1.1353,1.1342,1.1332,1.1314,1.1434,1.1434,1.1522,1.1523,1.1523]},{"header":{"parameterUnit":"m.s-1","parameterCategory":1,"la1":30.2991,"la2":30.254,"lo1":-89.0895,"lo2":-89.0444,"dy":0.0017,"dx":0.0017,"nx":28,"ny":28,"refTime":"2025-05-20T21:00:00:Z","depth":0,"parameterNumber":3,"parameterNumberName":"V-component_of_WINDS"},"data":[0,0,0,0,0,0,0,0,0,0,0,0,0,0,0,0,0,0,0,0,0,0,0,0,0,0,0,0,0,0,0,0,0,0,0,0,0,0,0,0,0,0,0,0,0,0,0,0,0,0,0,0,0,0,0,0,0,0,0.5967,0.5965,0,0.5826,0.5824,0.5822,0.5663,0.566,0.5658,0.5656,0.551,0.5509,0.5507,0,0,0,0,0,0,0,0,0,0,0,0,0,0.6098,0.6096,0.5967,0.5965,0.5964,0.5826,0.5824,0.5822,0.5663,0.566,0.5657,0.5655,0.5511,0.5509,0.5507,0,0,0,0,0,0,0,0,0,0,0,0,0,0.6007,0.6096,0.5967,0.5868,0.5857,0.5826,0.5824,0.5821,0.5664,0.566,0.5656,0.5653,0.5511,0.5509,0.5506,0.5562,0,0,0.5499,0.5498,0,0,0,0,0,0,0,0,0.6013,0.6003,0.5884,0.5874,0.5863,0.5758,0.5816,0.5734,0.5664,0.5737,0.5656,0.5651,0.5596,0.5586,0.5567,0.5555,0.5549,0.5499,0.5497,0.5496,0.5495,0,0,0,0,0,0,0,0.6019,0.6008,0.5911,0.5883,0.587,0.5829,0.5813,0.58,0.5688,0.5731,0.5719,0.5704,0.5589,0.557,0.5562,0.5547,0.5499,0.5496,0.5495,0.5494,0.5571,0.5575,0,0,0,0,0,0,0.6041,0.6014,0.5915,0.5907,0.5931,0.583,0.5811,0.5795,0.5688,0.5668,0.5707,0.5697,0.5576,0.5566,0.5557,0.5614,0.5496,0.5494,0.5492,0.5568,0.5572,0.5576,0,0,0,0,0,0,0.6044,0.6033,0.5921,0.5957,0.594,0.5831,0.5815,0.5794,0.5775,0.567,0.5649,0.5709,0.5573,0.556,0.5561,0.5606,0.5493,0.549,0.5564,0.5569,0.5574,0.5729,0,0,0,0,0,0,0.6049,0.6036,0.6056,0.5959,0.5939,0.593,0.5818,0.5794,0.5771,0.5757,0.5666,0.5647,0.5569,0.5566,0.5559,0.5601,0.5488,0.5559,0.5566,0.5572,0.572,0.5739,0.5756,0,0,0,0,0,0.6054,0.6106,0.6058,0.6047,0.5962,0.5932,0.5921,0.583,0.5776,0.5795,0.5727,0.565,0.5603,0.5568,0.5558,0.56,0.5556,0.5564,0.5572,0.5711,0.5735,0.5755,0,0,0,0,0,0,0.6211,0.6091,0.6037,0.6059,0.6007,0.5906,0.5927,0.5858,0.5821,0.5809,0.5697,0.5678,0.5692,0.5646,0.5609,0.5647,0.5568,0.5575,0.5677,0.5699,0.5717,0.5728,0.5486,0,0,0,0,0,0.6248,0.6235,0.613,0.616,0.6137,0.6037,0.6021,0.5955,0.5897,0.5874,0.5806,0.5752,0.5725,0.5709,0.5678,0.5712,0.5689,0.5736,0.5754,0.5769,0.5777,0.579,0.5809,0.5602,0.5602,0.5602,0,0,0.6325,0.6258,0.6256,0.619,0.6142,0.613,0.602,0.6012,0.6001,0.5872,0.5869,0.5818,0.575,0.5768,0.5772,0.573,0.5828,0.578,0.5793,0.5791,0.58,0.582,0.5837,0.5608,0.5607,0.5606,0,0,0.6459,0.6407,0.6425,0.638,0.6308,0.6241,0.6246,0.6154,0.6115,0.6111,0.6013,0.5999,0.5955,0.591,0.5882,0.5997,0.5925,0.599,0.6086,0.61,0.6116,0.613,0.6171,0.6187,0.5998,0.5998,0.5998,0,0.6564,0.6542,0.6444,0.6441,0.6415,0.6297,0.6315,0.6275,0.6197,0.6181,0.6135,0.6076,0.6022,0.6027,0.6055,0.6036,0.6037,0.6,0.6122,0.6134,0.6146,0.6184,0.6199,0.6006,0.6005,0.6005,0.6004,0,0.6674,0.666,0.6683,0.6611,0.6587,0.6595,0.6497,0.6484,0.642,0.6358,0.6354,0.6285,0.6238,0.6234,0.6172,0.623,0.6206,0.6142,0.606,0.6176,0.6209,0.6223,0.6019,0.6015,0.6013,0.6011,0,0,0.6904,0.6776,0.6787,0.6752,0.6664,0.6651,0.6653,0.6607,0.6598,0.6548,0.6546,0.6511,0.6451,0.6419,0.635,0.6363,0.6458,0.6297,0.6293,0.6329,0.6517,0.6566,0.6584,0.6409,0.6411,0.6413,0.6522,0,0.7021,0.7018,0.6929,0.695,0.6936,0.6824,0.6825,0.6771,0.6713,0.6692,0.6626,0.6603,0.6526,0.6506,0.6513,0.6445,0.6494,0.6436,0.6406,0.6406,0.6427,0.6601,0.6653,0.6759,0.6535,0.6537,0.6539,0,0.7159,0.7117,0.7137,0.7048,0.7038,0.7041,0.6991,0.6972,0.6908,0.6865,0.6829,0.6751,0.6745,0.6668,0.6659,0.6621,0.6603,0.6568,0.657,0.6564,0.648,0.66,0.6791,0.6808,0.6558,0.6557,0.6555,0,0.7324,0.7273,0.7278,0.7252,0.7148,0.7152,0.7109,0.7041,0.7019,0.6975,0.6959,0.6915,0.6891,0.6858,0.677,0.6722,0.6771,0.6686,0.6734,0.6737,0.675,0.675,0.6941,0.6739,0.6738,0.6738,0.6738,0,0.7466,0.7482,0.7351,0.7354,0.7369,0.7266,0.7283,0.7229,0.717,0.716,0.706,0.7053,0.6936,0.6916,0.6847,0.6849,0.6839,0.6803,0.6785,0.6812,0.6817,0.68,0.679,0.6742,0.6741,0.6741,0.674,0,0.7653,0.7566,0.7564,0.7465,0.7441,0.7456,0.7371,0.7369,0.7305,0.7293,0.7285,0.7183,0.7153,0.7062,0.701,0.6963,0.6986,0.6951,0.7008,0.6996,0.7049,0.7045,0.7235,0.7255,0.7041,0.7043,0.7045,0,0.7749,0.7759,0.7662,0.7648,0.7609,0.7588,0.7564,0.7463,0.7442,0.737,0.7377,0.7339,0.7304,0.7262,0.7183,0.7142,0.7105,0.7174,0.7098,0.7125,0.7105,0.7106,0.7106,0.7191,0.7194,0.7196,0.7198,0,0.7929,0.7885,0.7855,0.781,0.7784,0.7744,0.7697,0.7692,0.7578,0.756,0.7529,0.7501,0.7447,0.7411,0.7357,0.7311,0.7236,0.7222,0.7231,0.726,0.7293,0.7275,0.7053,0.7219,0.7217,0.7215,0.7214,0.7213,0.8073,0.8076,0.8008,0.7977,0.7932,0.7891,0.7884,0.7819,0.7791,0.7739,0.7681,0.7656,0.759,0.751,0.747,0.7448,0.7408,0.7421,0.7424,0.7429,0.7442,0.7296,0.7438,0.7437,0.7437,0.7436,0.7435,0,0.8247,0.8197,0.817,0.8108,0.8085,0.8015,0.796,0.7945,0.7924,0.787,0.7837,0.78,0.7764,0.7682,0.7638,0.7637,0.7601,0.7629,0.7628,0.7619,0.7481,0.7477,0.7659,0.7658,0.7658,0.7658,0.7658,0.7658,0.8335,0.8337,0.8285,0.8263,0.8212,0.8187,0.8162,0.8123,0.8079,0.8043,0.8012,0.7959,0.7893,0.7843,0.7807,0.7783,0.7772,0.7811,0.7777,0.765,0.7628,0.7608,0.7605,0.7809,0.781,0.7916,0.7917,0.7918]}]]